軌道要素
The following orbital elements are taken from MPC 65935:
Epoch 2008 May 14.0 TT = JDT 2454600.5
T 2008 May 24.2094 TT MPC
q 4.049298 (2000.0) P Q
z +0.021370 Peri. 34.4114 -0.6518650 -0.3509694
+/-0.000000 Node 109.8431 +0.4282210 -0.9019582
e 0.913465 Incl. 45.6155 +0.6258585 +0.2515789
From 275 observations 2007 Oct. 13-2009 Apr. 25, mean residual 0".6.
|